{"data":{"norad_id":54853,"intl_designator":"2022-177AK","name":"STARLINK-5427","alt_names":[],"object_type":"PAYLOAD","status":"ACTIVE","operator":null,"country":"US","launch_date":"2022-12-28","launch_site_code":"AFETR","launch_vehicle":null,"mission":null,"orbit_class":"UNKNOWN","rcs_meters":null,"size_class":null,"mass_kg":null,"dimensions":null,"purposes":["comms"],"wikipedia_slug":null,"has_3d_model":false,"image_url":null,"decayed_at":null,"tle_current":{"epoch":"2026-05-25T03:08:52.509120Z","epoch_age_seconds":59586,"freshness":"FRESH","line1":"1 54853U 22177AK  26145.13116330 -.00001134  00000+0 -31693-4 0  9996","line2":"2 54853  43.0066  49.6861 0001384 249.8670 110.2033 15.27559995188781","mean_motion":15.27559995,"eccentricity":0.0001384,"inclination_deg":43.0066,"raan_deg":49.6861,"arg_perigee_deg":249.867,"mean_anomaly_deg":110.2033,"bstar":-3.1693e-5,"rev_number":18878,"period_min":94.267983235578,"perigee_km":482.15940241391,"apogee_km":484.05859530639,"semimajor_km":6861.2459988601,"source":"CELESTRAK","updated_at":"2026-05-25T13:38:17.726163Z"}}}